Year,Month,Day,Hour,Minute,Value (Times are PST for temperature in C)
2007,04,29,00,00,8.00
2007,04,29,00,01,8.00
2007,04,29,00,02,8.00
2007,04,29,00,03,7.90
2007,04,29,00,04,7.90
2007,04,29,00,05,7.90
2007,04,29,00,06,7.90
2007,04,29,00,07,7.80
2007,04,29,00,08,7.80
2007,04,29,00,09,7.80
2007,04,29,00,10,7.80
2007,04,29,00,11,7.80
2007,04,29,00,12,7.80
2007,04,29,00,13,7.70
2007,04,29,00,14,7.70
2007,04,29,00,15,7.70
2007,04,29,00,16,7.70
2007,04,29,00,17,7.60
2007,04,29,00,18,7.60
2007,04,29,00,19,7.60
2007,04,29,00,20,7.60
2007,04,29,00,21,7.60
2007,04,29,00,22,7.60
2007,04,29,00,23,7.60
2007,04,29,00,24,7.60
2007,04,29,00,25,7.50
2007,04,29,00,26,7.50
2007,04,29,00,27,7.50
2007,04,29,00,28,7.50
2007,04,29,00,29,7.50
2007,04,29,00,30,7.50
2007,04,29,00,31,7.50
2007,04,29,00,32,7.40
2007,04,29,00,33,7.40
2007,04,29,00,34,7.40
2007,04,29,00,35,7.40
2007,04,29,00,36,7.30
2007,04,29,00,37,7.30
2007,04,29,00,38,7.30
2007,04,29,00,39,7.30
2007,04,29,00,40,7.30
2007,04,29,00,41,7.20
2007,04,29,00,42,7.20
2007,04,29,00,43,7.10
2007,04,29,00,44,7.10
2007,04,29,00,45,7.00
2007,04,29,00,46,7.00
2007,04,29,00,47,7.00
2007,04,29,00,48,6.90
2007,04,29,00,49,6.90
2007,04,29,00,50,6.90
2007,04,29,00,51,6.80
2007,04,29,00,52,6.80
2007,04,29,00,53,6.80
2007,04,29,00,54,6.80
2007,04,29,00,55,6.80
2007,04,29,00,56,6.80
2007,04,29,00,57,6.80
2007,04,29,00,58,6.80
2007,04,29,00,59,6.80
2007,04,29,01,00,6.80
2007,04,29,01,01,6.80
2007,04,29,01,02,6.80
2007,04,29,01,03,6.80
2007,04,29,01,04,6.80
2007,04,29,01,05,6.80
2007,04,29,01,06,6.80
2007,04,29,01,07,6.80
2007,04,29,01,08,6.80
2007,04,29,01,09,6.80
2007,04,29,01,10,6.80
2007,04,29,01,11,6.80
2007,04,29,01,12,6.80
2007,04,29,01,13,6.80
2007,04,29,01,14,6.80
2007,04,29,01,15,6.80
2007,04,29,01,16,6.80
2007,04,29,01,17,6.80
2007,04,29,01,18,6.80
2007,04,29,01,19,6.80
2007,04,29,01,20,6.80
2007,04,29,01,21,6.80
2007,04,29,01,22,6.80
2007,04,29,01,23,6.80
2007,04,29,01,24,6.80
2007,04,29,01,25,6.80
2007,04,29,01,26,6.80
2007,04,29,01,27,6.80
2007,04,29,01,28,6.80
2007,04,29,01,29,6.80
2007,04,29,01,30,6.80
2007,04,29,01,31,6.80
2007,04,29,01,32,6.80
2007,04,29,01,33,6.80
2007,04,29,01,34,6.80
2007,04,29,01,35,6.80
2007,04,29,01,36,6.80
2007,04,29,01,37,6.80
2007,04,29,01,38,6.80
2007,04,29,01,39,6.80
2007,04,29,01,40,6.80
2007,04,29,01,41,6.80
2007,04,29,01,42,6.80
2007,04,29,01,43,6.80
2007,04,29,01,44,6.80
2007,04,29,01,45,6.80
2007,04,29,01,46,6.80
2007,04,29,01,47,6.80
2007,04,29,01,48,6.80
2007,04,29,01,49,6.80
2007,04,29,01,50,6.80
2007,04,29,01,51,6.80
2007,04,29,01,52,6.80
2007,04,29,01,53,6.80
2007,04,29,01,54,6.80
2007,04,29,01,55,6.80
2007,04,29,01,56,6.80
2007,04,29,01,57,6.80
2007,04,29,01,58,6.80
2007,04,29,01,59,6.80
2007,04,29,02,00,6.80
2007,04,29,02,01,6.80
2007,04,29,02,02,6.80
2007,04,29,02,03,6.80
2007,04,29,02,04,6.80
2007,04,29,02,05,6.70
2007,04,29,02,06,6.70
2007,04,29,02,07,6.70
2007,04,29,02,08,6.70
2007,04,29,02,09,6.70
2007,04,29,02,10,6.70
2007,04,29,02,11,6.70
2007,04,29,02,12,6.70
2007,04,29,02,13,6.70
2007,04,29,02,14,6.70
2007,04,29,02,15,6.70
2007,04,29,02,16,6.70
2007,04,29,02,17,6.70
2007,04,29,02,18,6.70
2007,04,29,02,19,6.70
2007,04,29,02,20,6.70
2007,04,29,02,21,6.70
2007,04,29,02,22,6.70
2007,04,29,02,23,6.70
2007,04,29,02,24,6.70
2007,04,29,02,25,6.70
2007,04,29,02,26,6.70
2007,04,29,02,27,6.70
2007,04,29,02,28,6.70
2007,04,29,02,29,6.70
2007,04,29,02,30,6.70
2007,04,29,02,31,6.70
2007,04,29,02,32,6.70
2007,04,29,02,33,6.60
2007,04,29,02,34,6.60
2007,04,29,02,35,6.60
2007,04,29,02,36,6.60
2007,04,29,02,37,6.60
2007,04,29,02,38,6.60
2007,04,29,02,39,6.60
2007,04,29,02,40,6.60
2007,04,29,02,41,6.60
2007,04,29,02,42,6.60
2007,04,29,02,43,6.60
2007,04,29,02,44,6.60
2007,04,29,02,45,6.60
2007,04,29,02,46,6.60
2007,04,29,02,47,6.60
2007,04,29,02,48,6.60
2007,04,29,02,49,6.60
2007,04,29,02,50,6.60
2007,04,29,02,51,6.60
2007,04,29,02,52,6.60
2007,04,29,02,53,6.60
2007,04,29,02,54,6.70
2007,04,29,02,55,6.70
2007,04,29,02,56,6.70
2007,04,29,02,57,6.70
2007,04,29,02,58,6.70
2007,04,29,02,59,6.70
2007,04,29,03,00,6.70
2007,04,29,03,01,6.70
2007,04,29,03,02,6.70
2007,04,29,03,03,6.70
2007,04,29,03,04,6.70
2007,04,29,03,05,6.70
2007,04,29,03,06,6.70
2007,04,29,03,07,6.70
2007,04,29,03,08,6.70
2007,04,29,03,09,6.70
2007,04,29,03,10,6.70
2007,04,29,03,11,6.70
2007,04,29,03,12,6.70
2007,04,29,03,13,6.60
2007,04,29,03,14,6.60
2007,04,29,03,15,6.60
2007,04,29,03,16,6.60
2007,04,29,03,17,6.60
2007,04,29,03,18,6.60
2007,04,29,03,19,6.60
2007,04,29,03,20,6.60
2007,04,29,03,21,6.60
2007,04,29,03,22,6.50
2007,04,29,03,23,6.40
2007,04,29,03,24,6.40
2007,04,29,03,25,6.40
2007,04,29,03,26,6.40
2007,04,29,03,27,6.40
2007,04,29,03,28,6.40
2007,04,29,03,29,6.40
2007,04,29,03,30,6.40
2007,04,29,03,31,6.40
2007,04,29,03,32,6.40
2007,04,29,03,33,6.40
2007,04,29,03,34,6.40
2007,04,29,03,35,6.40
2007,04,29,03,36,6.40
2007,04,29,03,37,6.40
2007,04,29,03,38,6.40
2007,04,29,03,39,6.40
2007,04,29,03,40,6.40
2007,04,29,03,41,6.40
2007,04,29,03,42,6.40
2007,04,29,03,43,6.40
2007,04,29,03,44,6.40
2007,04,29,03,45,6.40
2007,04,29,03,46,6.30
2007,04,29,03,47,6.30
2007,04,29,03,48,6.30
2007,04,29,03,49,6.30
2007,04,29,03,50,6.30
2007,04,29,03,51,6.40
2007,04,29,03,52,6.40
2007,04,29,03,53,6.40
2007,04,29,03,54,6.40
2007,04,29,03,55,6.40
2007,04,29,03,56,6.40
2007,04,29,03,57,6.40
2007,04,29,03,58,6.40
2007,04,29,03,59,6.40
2007,04,29,04,00,6.40
2007,04,29,04,01,6.40
2007,04,29,04,02,6.40
2007,04,29,04,03,6.50
2007,04,29,04,04,6.60
2007,04,29,04,05,6.60
2007,04,29,04,06,6.60
2007,04,29,04,07,6.60
2007,04,29,04,08,6.60
2007,04,29,04,09,6.60
2007,04,29,04,10,6.60
2007,04,29,04,11,6.60
2007,04,29,04,12,6.60
2007,04,29,04,13,6.60
2007,04,29,04,14,6.60
2007,04,29,04,15,6.60
2007,04,29,04,16,6.60
2007,04,29,04,17,6.60
2007,04,29,04,18,6.60
2007,04,29,04,19,6.60
2007,04,29,04,20,6.60
2007,04,29,04,21,6.60
2007,04,29,04,22,6.60
2007,04,29,04,23,6.60
2007,04,29,04,24,6.60
2007,04,29,04,25,6.60
2007,04,29,04,26,6.60
2007,04,29,04,27,6.60
2007,04,29,04,28,6.60
2007,04,29,04,29,6.60
2007,04,29,04,30,6.60
2007,04,29,04,31,6.60
2007,04,29,04,32,6.60
2007,04,29,04,33,6.60
2007,04,29,04,34,6.60
2007,04,29,04,35,6.60
2007,04,29,04,36,6.60
2007,04,29,04,37,6.60
2007,04,29,04,38,6.60
2007,04,29,04,39,6.50
2007,04,29,04,40,6.40
2007,04,29,04,41,6.40
2007,04,29,04,42,6.40
2007,04,29,04,43,6.40
2007,04,29,04,44,6.40
2007,04,29,04,45,6.40
2007,04,29,04,46,6.40
2007,04,29,04,47,6.40
2007,04,29,04,48,6.40
2007,04,29,04,49,6.40
2007,04,29,04,50,6.40
2007,04,29,04,51,6.30
2007,04,29,04,52,6.30
2007,04,29,04,53,6.30
2007,04,29,04,54,6.30
2007,04,29,04,55,6.30
2007,04,29,04,56,6.30
2007,04,29,04,57,6.30
2007,04,29,04,58,6.30
2007,04,29,04,59,6.30
2007,04,29,05,00,6.30
2007,04,29,05,01,6.30
2007,04,29,05,02,6.20
2007,04,29,05,03,6.20
2007,04,29,05,04,6.20
2007,04,29,05,05,6.20
2007,04,29,05,06,6.20
2007,04,29,05,07,6.20
2007,04,29,05,08,6.20
2007,04,29,05,09,6.20
2007,04,29,05,10,6.20
2007,04,29,05,11,6.20
2007,04,29,05,12,6.20
2007,04,29,05,13,6.20
2007,04,29,05,14,6.20
2007,04,29,05,15,6.20
2007,04,29,05,16,6.20
2007,04,29,05,17,6.20
2007,04,29,05,18,6.30
2007,04,29,05,19,6.30
2007,04,29,05,20,6.30
2007,04,29,05,21,6.30
2007,04,29,05,22,6.30
2007,04,29,05,23,6.30
2007,04,29,05,24,6.30
2007,04,29,05,25,6.30
2007,04,29,05,26,6.30
2007,04,29,05,27,6.30
2007,04,29,05,28,6.30
2007,04,29,05,29,6.30
2007,04,29,05,30,6.30
2007,04,29,05,31,6.30
2007,04,29,05,32,6.30
2007,04,29,05,33,6.30
2007,04,29,05,34,6.30
2007,04,29,05,35,6.30
2007,04,29,05,36,6.30
2007,04,29,05,37,6.30
2007,04,29,05,38,6.30
2007,04,29,05,39,6.30
2007,04,29,05,40,6.30
2007,04,29,05,41,6.30
2007,04,29,05,42,6.40
2007,04,29,05,43,6.40
2007,04,29,05,44,6.40
2007,04,29,05,45,6.40
2007,04,29,05,46,6.40
2007,04,29,05,47,6.30
2007,04,29,05,48,6.30
2007,04,29,05,49,6.30
2007,04,29,05,50,6.30
2007,04,29,05,51,6.30
2007,04,29,05,52,6.30
2007,04,29,05,53,6.20
2007,04,29,05,54,6.20
2007,04,29,05,55,6.20
2007,04,29,05,56,6.20
2007,04,29,05,57,6.20
2007,04,29,05,58,6.20
2007,04,29,05,59,6.20
2007,04,29,06,00,6.20
2007,04,29,06,01,6.20
2007,04,29,06,02,6.20
2007,04,29,06,03,6.20
2007,04,29,06,04,6.20
2007,04,29,06,05,6.20
2007,04,29,06,06,6.20
2007,04,29,06,07,6.20
2007,04,29,06,08,6.20
2007,04,29,06,09,6.20
2007,04,29,06,10,6.20
2007,04,29,06,11,6.20
2007,04,29,06,12,6.20
2007,04,29,06,13,6.20
2007,04,29,06,14,6.20
2007,04,29,06,15,6.20
2007,04,29,06,16,6.20
2007,04,29,06,17,6.20
2007,04,29,06,18,6.20
2007,04,29,06,19,6.20
2007,04,29,06,20,6.20
2007,04,29,06,21,6.20
2007,04,29,06,22,6.20
2007,04,29,06,23,6.20
2007,04,29,06,24,6.20
2007,04,29,06,25,6.20
2007,04,29,06,26,6.20
2007,04,29,06,27,6.20
2007,04,29,06,28,6.20
2007,04,29,06,29,6.20
2007,04,29,06,30,6.20
2007,04,29,06,31,6.20
2007,04,29,06,32,6.20
2007,04,29,06,33,6.20
2007,04,29,06,34,6.20
2007,04,29,06,35,6.20
2007,04,29,06,36,6.20
2007,04,29,06,37,6.20
2007,04,29,06,38,6.20
2007,04,29,06,39,6.20
2007,04,29,06,40,6.20
2007,04,29,06,41,6.20
2007,04,29,06,42,6.30
2007,04,29,06,43,6.30
2007,04,29,06,44,6.30
2007,04,29,06,45,6.30
2007,04,29,06,46,6.30
2007,04,29,06,47,6.30
2007,04,29,06,48,6.30
2007,04,29,06,49,6.30
2007,04,29,06,50,6.30
2007,04,29,06,51,6.30
2007,04,29,06,52,6.30
2007,04,29,06,53,6.30
2007,04,29,06,54,6.30
2007,04,29,06,55,6.40
2007,04,29,06,56,6.40
2007,04,29,06,57,6.40
2007,04,29,06,58,6.40
2007,04,29,06,59,6.40
2007,04,29,07,00,6.40
2007,04,29,07,01,6.40
2007,04,29,07,02,6.50
2007,04,29,07,03,6.60
2007,04,29,07,04,6.70
2007,04,29,07,05,6.70
2007,04,29,07,06,6.80
2007,04,29,07,07,6.80
2007,04,29,07,08,6.90
2007,04,29,07,09,7.00
2007,04,29,07,10,7.10
2007,04,29,07,11,7.10
2007,04,29,07,12,7.20
2007,04,29,07,13,7.20
2007,04,29,07,14,7.30
2007,04,29,07,15,7.30
2007,04,29,07,16,7.30
2007,04,29,07,17,7.40
2007,04,29,07,18,7.40
2007,04,29,07,19,7.40
2007,04,29,07,20,7.50
2007,04,29,07,21,7.50
2007,04,29,07,22,7.50
2007,04,29,07,23,7.50
2007,04,29,07,24,7.60
2007,04,29,07,25,7.60
2007,04,29,07,26,7.60
2007,04,29,07,27,7.60
2007,04,29,07,28,7.60
2007,04,29,07,29,7.60
2007,04,29,07,30,7.60
2007,04,29,07,31,7.60
2007,04,29,07,32,7.60
2007,04,29,07,33,7.70
2007,04,29,07,34,7.70
2007,04,29,07,35,7.70
2007,04,29,07,36,7.70
2007,04,29,07,37,7.70
2007,04,29,07,38,7.80
2007,04,29,07,39,7.80
2007,04,29,07,40,7.80
2007,04,29,07,41,7.80
2007,04,29,07,42,7.80
2007,04,29,07,43,7.80
2007,04,29,07,44,7.90
2007,04,29,07,45,8.00
2007,04,29,07,46,8.10
2007,04,29,07,47,8.20
2007,04,29,07,48,8.20
2007,04,29,07,49,8.30
2007,04,29,07,50,8.30
2007,04,29,07,51,8.30
2007,04,29,07,52,8.40
2007,04,29,07,53,8.40
2007,04,29,07,54,8.40
2007,04,29,07,55,8.40
2007,04,29,07,56,8.50
2007,04,29,07,57,8.50
2007,04,29,07,58,8.50
2007,04,29,07,59,8.50
2007,04,29,08,00,8.50
2007,04,29,08,01,8.60
2007,04,29,08,02,8.60
2007,04,29,08,03,8.60
2007,04,29,08,04,8.60
2007,04,29,08,05,8.60
2007,04,29,08,06,8.70
2007,04,29,08,07,8.70
2007,04,29,08,08,8.70
2007,04,29,08,09,8.60
2007,04,29,08,10,8.70
2007,04,29,08,11,8.70
2007,04,29,08,12,8.70
2007,04,29,08,13,8.70
2007,04,29,08,14,8.70
2007,04,29,08,15,8.70
2007,04,29,08,16,8.70
2007,04,29,08,17,8.70
2007,04,29,08,18,8.70
2007,04,29,08,19,8.70
2007,04,29,08,20,8.70
2007,04,29,08,21,8.70
2007,04,29,08,22,8.70
2007,04,29,08,23,8.70
2007,04,29,08,24,8.70
2007,04,29,08,25,8.80
2007,04,29,08,26,8.80
2007,04,29,08,27,8.90
2007,04,29,08,28,8.90
2007,04,29,08,29,9.00
2007,04,29,08,30,9.10
2007,04,29,08,31,9.10
2007,04,29,08,32,9.20
2007,04,29,08,33,9.20
2007,04,29,08,34,9.30
2007,04,29,08,35,9.40
2007,04,29,08,36,9.40
2007,04,29,08,37,9.40
2007,04,29,08,38,9.40
2007,04,29,08,39,9.50
2007,04,29,08,40,9.50
2007,04,29,08,41,9.50
2007,04,29,08,42,9.50
2007,04,29,08,43,9.50
2007,04,29,08,44,9.60
2007,04,29,08,45,9.60
2007,04,29,08,46,9.70
2007,04,29,08,47,9.70
2007,04,29,08,48,9.70
2007,04,29,08,49,9.70
2007,04,29,08,50,9.80
2007,04,29,08,51,9.80
2007,04,29,08,52,9.80
2007,04,29,08,53,9.80
2007,04,29,08,54,9.80
2007,04,29,08,55,9.90
2007,04,29,08,56,9.90
2007,04,29,08,57,9.90
2007,04,29,08,58,9.90
2007,04,29,08,59,10.00
2007,04,29,09,00,10.10
2007,04,29,09,01,10.10
2007,04,29,09,02,10.10
2007,04,29,09,03,10.10
2007,04,29,09,04,10.10
2007,04,29,09,05,10.10
2007,04,29,09,06,10.20
2007,04,29,09,07,10.20
2007,04,29,09,08,10.20
2007,04,29,09,09,10.30
2007,04,29,09,10,10.30
2007,04,29,09,11,10.30
2007,04,29,09,12,10.30
2007,04,29,09,13,10.20
2007,04,29,09,14,10.20
2007,04,29,09,15,10.20
2007,04,29,09,16,10.10
2007,04,29,09,17,10.10
2007,04,29,09,18,10.10
2007,04,29,09,19,10.10
2007,04,29,09,20,10.20
2007,04,29,09,21,10.30
2007,04,29,09,22,10.30
2007,04,29,09,23,10.40
2007,04,29,09,24,10.40
2007,04,29,09,25,10.50
2007,04,29,09,26,10.60
2007,04,29,09,27,10.60
2007,04,29,09,28,10.60
2007,04,29,09,29,10.60
2007,04,29,09,30,10.60
2007,04,29,09,31,10.60
2007,04,29,09,32,10.60
2007,04,29,09,33,10.60
2007,04,29,09,34,10.60
2007,04,29,09,35,10.60
2007,04,29,09,36,10.60
2007,04,29,09,37,10.50
2007,04,29,09,38,10.40
2007,04,29,09,39,10.40
2007,04,29,09,40,10.40
2007,04,29,09,41,10.40
2007,04,29,09,42,10.40
2007,04,29,09,43,10.40
2007,04,29,09,44,10.40
2007,04,29,09,45,10.30
2007,04,29,09,46,10.30
2007,04,29,09,47,10.30
2007,04,29,09,48,10.40
2007,04,29,09,49,10.40
2007,04,29,09,50,10.50
2007,04,29,09,51,10.60
2007,04,29,09,52,10.60
2007,04,29,09,53,10.70
2007,04,29,09,54,10.80
2007,04,29,09,55,10.80
2007,04,29,09,56,10.90
2007,04,29,09,57,10.90
2007,04,29,09,58,11.00
2007,04,29,09,59,11.10
2007,04,29,10,00,11.10
2007,04,29,10,01,11.00
2007,04,29,10,02,10.90
2007,04,29,10,03,11.00
2007,04,29,10,04,11.10
2007,04,29,10,05,11.10
2007,04,29,10,06,11.20
2007,04,29,10,07,11.20
2007,04,29,10,08,11.20
2007,04,29,10,09,11.20
2007,04,29,10,10,11.20
2007,04,29,10,11,11.20
2007,04,29,10,12,11.20
2007,04,29,10,13,11.20
2007,04,29,10,14,11.30
2007,04,29,10,15,11.20
2007,04,29,10,16,11.20
2007,04,29,10,17,11.10
2007,04,29,10,18,11.10
2007,04,29,10,19,11.10
2007,04,29,10,20,11.10
2007,04,29,10,21,11.10
2007,04,29,10,22,11.10
2007,04,29,10,23,11.10
2007,04,29,10,24,11.10
2007,04,29,10,25,11.20
2007,04,29,10,26,11.30
2007,04,29,10,27,11.30
2007,04,29,10,28,11.30
2007,04,29,10,29,11.40
2007,04,29,10,30,11.40
2007,04,29,10,31,11.50
2007,04,29,10,32,11.50
2007,04,29,10,33,11.40
2007,04,29,10,34,11.30
2007,04,29,10,35,11.20
2007,04,29,10,36,11.10
2007,04,29,10,37,11.10
2007,04,29,10,38,11.10
2007,04,29,10,39,11.10
2007,04,29,10,40,11.10
2007,04,29,10,41,11.10
2007,04,29,10,42,11.10
2007,04,29,10,43,11.10
2007,04,29,10,44,11.20
2007,04,29,10,45,11.20
2007,04,29,10,46,11.30
2007,04,29,10,47,11.40
2007,04,29,10,48,11.40
2007,04,29,10,49,11.40
2007,04,29,10,50,11.60
2007,04,29,10,51,11.60
2007,04,29,10,52,11.60
2007,04,29,10,53,11.60
2007,04,29,10,54,11.60
2007,04,29,10,55,11.60
2007,04,29,10,56,11.60
2007,04,29,10,57,11.60
2007,04,29,10,58,11.60
2007,04,29,10,59,11.50
2007,04,29,11,00,11.40
2007,04,29,11,01,11.50
2007,04,29,11,02,11.60
2007,04,29,11,03,11.70
2007,04,29,11,04,11.80
2007,04,29,11,05,11.90
2007,04,29,11,06,12.00
2007,04,29,11,07,12.00
2007,04,29,11,08,12.00
2007,04,29,11,09,11.90
2007,04,29,11,10,11.80
2007,04,29,11,11,11.70
2007,04,29,11,12,11.70
2007,04,29,11,13,11.70
2007,04,29,11,14,11.70
2007,04,29,11,15,11.70
2007,04,29,11,16,11.70
2007,04,29,11,17,11.80
2007,04,29,11,18,11.80
2007,04,29,11,19,11.80
2007,04,29,11,20,11.80
2007,04,29,11,21,11.80
2007,04,29,11,22,11.80
2007,04,29,11,23,12.00
2007,04,29,11,24,12.10
2007,04,29,11,25,12.20
2007,04,29,11,26,12.30
2007,04,29,11,27,12.30
2007,04,29,11,28,12.40
2007,04,29,11,29,12.50
2007,04,29,11,30,12.50
2007,04,29,11,31,12.60
2007,04,29,11,32,12.70
2007,04,29,11,33,12.70
2007,04,29,11,34,12.70
2007,04,29,11,35,12.70
2007,04,29,11,36,12.70
2007,04,29,11,37,12.50
2007,04,29,11,38,12.50
2007,04,29,11,39,12.40
2007,04,29,11,40,12.30
2007,04,29,11,41,12.30
2007,04,29,11,42,12.30
2007,04,29,11,43,12.30
2007,04,29,11,44,12.30
2007,04,29,11,45,12.30
2007,04,29,11,46,12.30
2007,04,29,11,47,12.30
2007,04,29,11,48,12.30
2007,04,29,11,49,12.30
2007,04,29,11,50,12.40
2007,04,29,11,51,12.40
2007,04,29,11,52,12.30
2007,04,29,11,53,12.30
2007,04,29,11,54,12.30
2007,04,29,11,55,12.30
2007,04,29,11,56,12.30
2007,04,29,11,57,12.30
2007,04,29,11,58,12.30
2007,04,29,11,59,12.30
2007,04,29,12,00,12.30
2007,04,29,12,01,12.30
2007,04,29,12,02,12.30
2007,04,29,12,03,12.30
2007,04,29,12,04,12.20
2007,04,29,12,05,12.20
2007,04,29,12,06,12.30
2007,04,29,12,07,12.30
2007,04,29,12,08,12.30
2007,04,29,12,09,12.30
2007,04,29,12,10,12.30
2007,04,29,12,11,12.30
2007,04,29,12,12,12.30
2007,04,29,12,13,12.30
2007,04,29,12,14,12.30
2007,04,29,12,15,12.20
2007,04,29,12,16,12.20
2007,04,29,12,17,12.10
2007,04,29,12,18,12.10
2007,04,29,12,19,12.10
2007,04,29,12,20,12.20
2007,04,29,12,21,12.30
2007,04,29,12,22,12.40
2007,04,29,12,23,12.60
2007,04,29,12,24,12.60
2007,04,29,12,25,12.70
2007,04,29,12,26,12.60
2007,04,29,12,27,12.50
2007,04,29,12,28,12.50
2007,04,29,12,29,12.50
2007,04,29,12,30,12.50
2007,04,29,12,31,12.60
2007,04,29,12,32,12.60
2007,04,29,12,33,12.60
2007,04,29,12,34,12.70
2007,04,29,12,35,12.70
2007,04,29,12,36,12.60
2007,04,29,12,37,12.60
2007,04,29,12,38,12.60
2007,04,29,12,39,12.60
2007,04,29,12,40,12.60
2007,04,29,12,41,12.70
2007,04,29,12,42,12.80
2007,04,29,12,43,12.80
2007,04,29,12,44,12.90
2007,04,29,12,45,13.00
2007,04,29,12,46,13.20
2007,04,29,12,47,13.30
2007,04,29,12,48,13.30
2007,04,29,12,49,13.30
2007,04,29,12,50,13.40
2007,04,29,12,51,13.50
2007,04,29,12,52,13.40
2007,04,29,12,53,13.40
2007,04,29,12,54,13.50
2007,04,29,12,55,13.50
2007,04,29,12,56,13.60
2007,04,29,12,57,13.50
2007,04,29,12,58,13.50
2007,04,29,12,59,13.60
2007,04,29,13,00,13.70
2007,04,29,13,01,13.80
2007,04,29,13,02,13.90
2007,04,29,13,03,14.00
2007,04,29,13,04,14.00
2007,04,29,13,05,13.90
2007,04,29,13,06,13.80
2007,04,29,13,07,13.70
2007,04,29,13,08,13.70
2007,04,29,13,09,13.70
2007,04,29,13,10,13.80
2007,04,29,13,11,13.90
2007,04,29,13,12,14.00
2007,04,29,13,13,14.00
2007,04,29,13,14,14.10
2007,04,29,13,15,14.10
2007,04,29,13,16,14.10
2007,04,29,13,17,14.10
2007,04,29,13,18,14.00
2007,04,29,13,19,14.00
2007,04,29,13,20,14.00
2007,04,29,13,21,13.90
2007,04,29,13,22,13.80
2007,04,29,13,23,13.80
2007,04,29,13,24,13.70
2007,04,29,13,25,13.80
2007,04,29,13,26,13.80
2007,04,29,13,27,13.80
2007,04,29,13,28,13.70
2007,04,29,13,29,13.70
2007,04,29,13,30,13.70
2007,04,29,13,31,13.80
2007,04,29,13,32,13.70
2007,04,29,13,33,13.60
2007,04,29,13,34,13.60
2007,04,29,13,35,13.60
2007,04,29,13,36,13.60
2007,04,29,13,37,13.60
2007,04,29,13,38,13.60
2007,04,29,13,39,13.50
2007,04,29,13,40,13.60
2007,04,29,13,41,13.60
2007,04,29,13,42,13.70
2007,04,29,13,43,13.70
2007,04,29,13,44,13.70
2007,04,29,13,45,13.90
2007,04,29,13,46,13.90
2007,04,29,13,47,13.90
2007,04,29,13,48,13.90
2007,04,29,13,49,13.90
2007,04,29,13,50,13.80
2007,04,29,13,51,13.70
2007,04,29,13,52,13.70
2007,04,29,13,53,13.70
2007,04,29,13,54,13.70
2007,04,29,13,55,13.80
2007,04,29,13,56,13.90
2007,04,29,13,57,13.90
2007,04,29,13,58,13.80
2007,04,29,13,59,13.70
2007,04,29,14,00,13.70
2007,04,29,14,01,13.80
2007,04,29,14,02,13.90
2007,04,29,14,03,13.90
2007,04,29,14,04,13.80
2007,04,29,14,05,13.80
2007,04,29,14,06,13.80
2007,04,29,14,07,13.90
2007,04,29,14,08,14.00
2007,04,29,14,09,14.10
2007,04,29,14,10,14.10
2007,04,29,14,11,14.10
2007,04,29,14,12,14.10
2007,04,29,14,13,14.20
2007,04,29,14,14,14.20
2007,04,29,14,15,14.20
2007,04,29,14,16,14.30
2007,04,29,14,17,14.30
2007,04,29,14,18,14.30
2007,04,29,14,19,14.20
2007,04,29,14,20,14.30
2007,04,29,14,21,14.20
2007,04,29,14,22,14.20
2007,04,29,14,23,14.30
2007,04,29,14,24,14.30
2007,04,29,14,25,14.20
2007,04,29,14,26,14.20
2007,04,29,14,27,14.20
2007,04,29,14,28,14.10
2007,04,29,14,29,14.10
2007,04,29,14,30,14.10
2007,04,29,14,31,14.20
2007,04,29,14,32,14.20
2007,04,29,14,33,14.20
2007,04,29,14,34,14.20
2007,04,29,14,35,14.20
2007,04,29,14,36,14.10
2007,04,29,14,37,14.00
2007,04,29,14,38,14.00
2007,04,29,14,39,13.90
2007,04,29,14,40,13.90
2007,04,29,14,41,13.90
2007,04,29,14,42,13.90
2007,04,29,14,43,13.80
2007,04,29,14,44,13.80
2007,04,29,14,45,13.80
2007,04,29,14,46,13.70
2007,04,29,14,47,13.70
2007,04,29,14,48,13.80
2007,04,29,14,49,13.80
2007,04,29,14,50,13.90
2007,04,29,14,51,14.00
2007,04,29,14,52,14.00
2007,04,29,14,53,14.10
2007,04,29,14,54,14.20
2007,04,29,14,55,14.20
2007,04,29,14,56,14.20
2007,04,29,14,57,14.20
2007,04,29,14,58,14.20
2007,04,29,14,59,14.20
2007,04,29,15,00,14.20
2007,04,29,15,01,14.20
2007,04,29,15,02,14.20
2007,04,29,15,03,14.10
2007,04,29,15,04,14.10
2007,04,29,15,05,14.10
2007,04,29,15,06,14.10
2007,04,29,15,07,14.20
2007,04,29,15,08,14.20
2007,04,29,15,09,14.20
2007,04,29,15,10,14.30
2007,04,29,15,11,14.30
2007,04,29,15,12,14.40
2007,04,29,15,13,14.40
2007,04,29,15,14,14.40
2007,04,29,15,15,14.40
2007,04,29,15,16,14.30
2007,04,29,15,17,14.30
2007,04,29,15,18,14.30
2007,04,29,15,19,14.30
2007,04,29,15,20,14.30
2007,04,29,15,21,14.40
2007,04,29,15,22,14.40
2007,04,29,15,23,14.40
2007,04,29,15,24,14.30
2007,04,29,15,25,14.20
2007,04,29,15,26,14.30
2007,04,29,15,27,14.30
2007,04,29,15,28,14.30
2007,04,29,15,29,14.20
2007,04,29,15,30,14.20
2007,04,29,15,31,14.20
2007,04,29,15,32,14.20
2007,04,29,15,33,14.20
2007,04,29,15,34,14.10
2007,04,29,15,35,14.20
2007,04,29,15,36,14.20
2007,04,29,15,37,14.30
2007,04,29,15,38,14.30
2007,04,29,15,39,14.30
2007,04,29,15,40,14.40
2007,04,29,15,41,14.40
2007,04,29,15,42,14.30
2007,04,29,15,43,14.30
2007,04,29,15,44,14.30
2007,04,29,15,45,14.30
2007,04,29,15,46,14.30
2007,04,29,15,47,14.50
2007,04,29,15,48,14.50
2007,04,29,15,49,14.40
2007,04,29,15,50,14.40
2007,04,29,15,51,14.40
2007,04,29,15,52,14.40
2007,04,29,15,53,14.30
2007,04,29,15,54,14.30
2007,04,29,15,55,14.20
2007,04,29,15,56,14.20
2007,04,29,15,57,14.20
2007,04,29,15,58,14.30
2007,04,29,15,59,14.40
2007,04,29,16,00,14.50
2007,04,29,16,01,14.50
2007,04,29,16,02,14.60
2007,04,29,16,03,14.60
2007,04,29,16,04,14.60
2007,04,29,16,05,14.60
2007,04,29,16,06,14.60
2007,04,29,16,07,14.60
2007,04,29,16,08,14.70
2007,04,29,16,09,14.70
2007,04,29,16,10,14.60
2007,04,29,16,11,14.60
2007,04,29,16,12,14.50
2007,04,29,16,13,14.40
2007,04,29,16,14,14.30
2007,04,29,16,15,14.20
2007,04,29,16,16,14.20
2007,04,29,16,17,14.20
2007,04,29,16,18,14.20
2007,04,29,16,19,14.10
2007,04,29,16,20,14.10
2007,04,29,16,21,14.10
2007,04,29,16,22,14.10
2007,04,29,16,23,14.10
2007,04,29,16,24,14.10
2007,04,29,16,25,14.10
2007,04,29,16,26,14.10
2007,04,29,16,27,14.20
2007,04,29,16,28,14.20
2007,04,29,16,29,14.20
2007,04,29,16,30,14.20
2007,04,29,16,31,14.20
2007,04,29,16,32,14.20
2007,04,29,16,33,14.20
2007,04,29,16,34,14.10
2007,04,29,16,35,14.00
2007,04,29,16,36,14.00
2007,04,29,16,37,14.10
2007,04,29,16,38,14.20
2007,04,29,16,39,14.10
2007,04,29,16,40,14.00
2007,04,29,16,41,13.90
2007,04,29,16,42,13.90
2007,04,29,16,43,13.80
2007,04,29,16,44,13.80
2007,04,29,16,45,13.70
2007,04,29,16,46,13.70
2007,04,29,16,47,13.80
2007,04,29,16,48,13.80
2007,04,29,16,49,13.80
2007,04,29,16,50,13.80
2007,04,29,16,51,13.70
2007,04,29,16,52,13.80
2007,04,29,16,53,13.80
2007,04,29,16,54,13.80
2007,04,29,16,55,13.80
2007,04,29,16,56,13.80
2007,04,29,16,57,13.80
2007,04,29,16,58,13.70
2007,04,29,16,59,13.70
2007,04,29,17,00,13.70
2007,04,29,17,01,13.80
2007,04,29,17,02,13.80
2007,04,29,17,03,13.80
2007,04,29,17,04,13.80
2007,04,29,17,05,13.90
2007,04,29,17,06,14.00
2007,04,29,17,07,14.00
2007,04,29,17,08,14.10
2007,04,29,17,09,14.10
2007,04,29,17,10,14.00
2007,04,29,17,11,14.00
2007,04,29,17,12,13.90
2007,04,29,17,13,13.90
2007,04,29,17,14,14.00
2007,04,29,17,15,14.00
2007,04,29,17,16,13.90
2007,04,29,17,17,13.70
2007,04,29,17,18,13.60
2007,04,29,17,19,13.60
2007,04,29,17,20,13.50
2007,04,29,17,21,13.40
2007,04,29,17,22,13.30
2007,04,29,17,23,13.30
2007,04,29,17,24,13.30
2007,04,29,17,25,13.40
2007,04,29,17,26,13.40
2007,04,29,17,27,13.40
2007,04,29,17,28,13.40
2007,04,29,17,29,13.30
2007,04,29,17,30,13.20
2007,04,29,17,31,13.20
2007,04,29,17,32,13.30
2007,04,29,17,33,13.30
2007,04,29,17,34,13.30
2007,04,29,17,35,13.40
2007,04,29,17,36,13.40
2007,04,29,17,37,13.40
2007,04,29,17,38,13.40
2007,04,29,17,39,13.40
2007,04,29,17,40,13.40
2007,04,29,17,41,13.40
2007,04,29,17,42,13.40